Location: Buffign�court
(47.8126°N, 6.0176°E)
Time: 15:38:03
(UTC+00:00)

Cosmos 968 Rocket - Pass Details

Date: 16 June 2021
Orbit: 740 x 771 km, 74.0° (Epoch: 04 August)

Event Time Altitude Azimuth Distance (km) Brightness Sun altitude
Rises 22:23:40 0° 335° (NNW) 3,189 8.4 -16.9°
Reaches altitude 10° 22:26:02 10° 332° (NNW) 2,262 7.2 -17.1°
Maximum altitude 22:31:06 66° 252° (WSW) 813 3.6 -17.3°
Enters shadow 22:33:33 30° 179° (S) 1,305 4.1 -17.4°
